カタログに戻る

FENGYUN 1C DEB

運用中PO
NORAD 29855·DEBRIS·🇨🇳 China

打ち上げ May 10, 1999 から Taiyuan Satellite Launch Center

Loading…

次のパス (今後24時間)

TLE

最新Source: Space-Track

元期: Sep 14, 2026, 06:19 UTC

1 29855U 99025EZ  26257.26335212  .00001980  00000-0  11196-2 0  9998
2 29855  98.1816 176.3055 0180751 343.4778 168.1437 14.03270946995749

AllMySatでFENGYUN 1C DEBをリアルタイム追跡

Download on the App Store